2024/03/05 00:00:00,40.2, 0.1
2024/03/05 00:10:00,40.2, 0.1
2024/03/05 00:20:00,40.2,-0.0
2024/03/05 00:30:00,40.1, 0.1
2024/03/05 00:40:00,40.1, 0.1
2024/03/05 00:50:00,40.1, 0.6
2024/03/05 01:00:00,40.1, 0.3
2024/03/05 01:10:00,40.1,-0.0
2024/03/05 01:20:00,40.1, 0.4
2024/03/05 01:30:00,40.0, 0.1
2024/03/05 01:40:00,39.9, 0.1
2024/03/05 01:50:00,39.8, 0.1
2024/03/05 02:00:00,39.7,-0.1
2024/03/05 02:10:00,39.7,-0.1
2024/03/05 02:20:00,39.7,-0.1
2024/03/05 02:30:00,39.7,-0.0
2024/03/05 02:40:00,39.7, 0.3
2024/03/05 02:50:00,39.6,-0.1
2024/03/05 03:00:00,39.7,-0.0
2024/03/05 03:10:00,39.6,-0.1
2024/03/05 03:20:00,39.5,-0.1
2024/03/05 03:30:00,39.2,-0.3
2024/03/05 03:40:00,38.9,-0.3
2024/03/05 03:50:00,38.8,-0.4
2024/03/05 04:00:00,38.4,-0.3
2024/03/05 04:10:00,37.2,-0.3
2024/03/05 04:20:00,36.7,-0.6
2024/03/05 04:30:00,36.8,-0.3
2024/03/05 04:40:00,37.0,-0.5
2024/03/05 04:50:00,37.6,-0.5
2024/03/05 05:00:00,37.8,-0.6
2024/03/05 05:10:00,37.6,-0.6
2024/03/05 05:20:00,37.5,-0.9
2024/03/05 05:30:00,37.5,-0.6
2024/03/05 05:40:00,37.4,-0.8
2024/03/05 05:50:00,37.2,-1.0
2024/03/05 06:00:00,37.1,-0.6
2024/03/05 06:10:00,37.1,-0.7
2024/03/05 06:20:00,37.5,-0.6
2024/03/05 06:30:00,38.8,-0.9
2024/03/05 06:40:00,39.4,-1.0
2024/03/05 06:50:00,39.6,-0.7
2024/03/05 07:00:00,39.9,-0.7
2024/03/05 07:10:00,40.3,-0.7
2024/03/05 07:20:00,40.7,-1.0
2024/03/05 07:30:00,40.7,-0.9
2024/03/05 07:40:00,40.6,-0.8
2024/03/05 07:50:00,40.8,-0.8
2024/03/05 08:00:00,40.9,-1.0
2024/03/05 08:10:00,41.0,-0.6
2024/03/05 08:20:00,41.5,-0.8
2024/03/05 08:30:00,41.7,-0.7
2024/03/05 08:40:00,41.7,-0.6
2024/03/05 08:50:00,41.7,-0.4
2024/03/05 09:00:00,41.8,-0.7
2024/03/05 09:10:00,41.9,-0.3
2024/03/05 09:20:00,41.9,-0.4
2024/03/05 09:30:00,41.8,-0.3
2024/03/05 09:40:00,41.7,-0.2
2024/03/05 09:50:00,41.5,-0.3
2024/03/05 10:00:00,41.6,-0.5
2024/03/05 10:10:00,41.5,-0.0
2024/03/05 10:20:00,41.5,-0.1
2024/03/05 10:30:00,41.6,-0.1
2024/03/05 10:40:00,41.4,-0.2
2024/03/05 10:50:00,41.1, 0.2
2024/03/05 11:00:00,41.0, 0.6
2024/03/05 11:10:00,41.1, 0.3
2024/03/05 11:20:00,41.0,-0.1
2024/03/05 11:30:00,41.0,-0.0
2024/03/05 11:40:00,40.9,-0.1
2024/03/05 11:50:00,40.5,-0.2
2024/03/05 12:00:00,40.4,-0.0
2024/03/05 12:10:00,40.3,-0.3
2024/03/05 12:20:00,40.3,-0.3
2024/03/05 12:30:00,40.1,-0.5
2024/03/05 12:40:00,40.1,-0.6
2024/03/05 12:50:00,40.1,-0.3
2024/03/05 13:00:00,40.1,-0.2
2024/03/05 13:10:00,39.9,-0.2
2024/03/05 13:20:00,39.7,-0.0
2024/03/05 13:30:00,39.8,-0.3
2024/03/05 13:40:00,39.7,-0.2
2024/03/05 13:50:00,39.6,-0.3
2024/03/05 14:00:00,39.3,-0.3
2024/03/05 14:10:00,39.3,-0.2
2024/03/05 14:20:00,39.4,-0.2
2024/03/05 14:30:00,39.4,-0.1
2024/03/05 14:40:00,39.2, 0.2
2024/03/05 14:50:00,38.6,-0.3
2024/03/05 15:00:00,38.4,-0.0
2024/03/05 15:10:00,38.5,-0.2
2024/03/05 15:20:00,37.6,-0.0
2024/03/05 15:30:00,37.0,-0.0
2024/03/05 15:40:00,36.9,-0.0
2024/03/05 15:50:00,36.6,-0.0
2024/03/05 16:00:00,36.3,-0.3
2024/03/05 16:10:00,36.3,-0.1
2024/03/05 16:20:00,36.4,-0.4
2024/03/05 16:30:00,36.2,-0.1
2024/03/05 16:40:00,36.2, 0.1
2024/03/05 16:50:00,36.3,-0.5
2024/03/05 17:00:00,36.5,-0.6
2024/03/05 17:10:00,36.6,-0.3
2024/03/05 17:20:00,36.6,-0.2
2024/03/05 17:30:00,36.9,-0.3
2024/03/05 17:40:00,36.9,-0.5
2024/03/05 17:50:00,37.0,-0.5
2024/03/05 18:00:00,37.1,-0.3
2024/03/05 18:10:00,36.9,-0.3
2024/03/05 18:20:00,36.9,-0.2
2024/03/05 18:30:00,37.0,-0.4
2024/03/05 18:40:00,36.8,-0.5
2024/03/05 18:50:00,36.5,-0.4
2024/03/05 19:00:00,36.4,-0.4
2024/03/05 19:10:00,36.4,-0.4
2024/03/05 19:20:00,36.6,-0.4
2024/03/05 19:30:00,36.3,-0.7
2024/03/05 19:40:00,36.3,-0.6
2024/03/05 19:50:00,36.1,-0.4
2024/03/05 20:00:00,36.2,-0.4
2024/03/05 20:10:00,36.3,-0.4
2024/03/05 20:20:00,36.2,-0.6
2024/03/05 20:30:00,36.2,-0.6
2024/03/05 20:40:00,36.2,-0.4
2024/03/05 20:50:00,35.7,-0.3
2024/03/05 21:00:00,34.7,-0.6
2024/03/05 21:10:00,34.4,-0.4
2024/03/05 21:20:00,33.9,-0.4
2024/03/05 21:30:00,33.4,-0.6
2024/03/05 21:40:00,33.4,-0.6
2024/03/05 21:50:00,33.4,-0.3
2024/03/05 22:00:00,33.8,-0.4
2024/03/05 22:10:00,34.0,-0.3
2024/03/05 22:20:00,33.7,-0.5
2024/03/05 22:30:00,33.5,-0.6
2024/03/05 22:40:00,33.8,-0.4
2024/03/05 22:50:00,33.9,-0.4
2024/03/05 23:00:00,33.9,-0.6
2024/03/05 23:10:00,33.8,-0.3
2024/03/05 23:20:00,34.1,-0.5
2024/03/05 23:30:00,33.9,-0.3
2024/03/05 23:40:00,33.9,-0.2
2024/03/05 23:50:00,33.8,-0.4
